Tampa Knight Airport, FL

3:43 PM EST on November 17, 2019 (GMT -0500)
Knight

Weather History for KTPF - October, 2019

Change the Weather History Date:

Tuesday, October 22, 2019

  Actual Average (WUND) Record (WUND)
Temperature  
Mean Temperature 82 °F -  
Max Temperature 87 °F - - (-1)
Min Temperature 78 °F - - (-1)
Cooling Degree Days 18    
Growing Degree Days 32 (Base 50)    
Moisture  
Dew Point 77 °F    
Average Humidity 79    
Maximum Humidity 100    
Minimum Humidity 62    
Precipitation  
Precipitation 0.00 in - - ()
Sea Level Pressure  
Sea Level Pressure 30.00 in    
Wind  
Wind Speed 5 mph ()    
Max Wind Speed 15 mph    
Max Gust Speed 21 mph    
Visibility 8.7 miles    
Events      
Averages and records for this station are not official NWS values.
T = Trace of Precipitation, MM = Missing Value Source: Averaged Metar Reports

Daily Weather History Graph

Daily Weather History Graph

Search for Another Location

Airport or City:

Astronomy

Oct. 22, 2019 Rise Set
Actual Time 7:34 AM EDT 6:53 PM EDT
Civil Twilight 7:10 AM EDT 7:17 PM EDT
Nautical Twilight 6:42 AM EDT 7:45 PM EDT
Astronomical Twilight 6:15 AM EDT 8:12 PM EDT
Moon 1:24 AM EDT (10/22) 3:23 PM EDT (10/22)
Length of Visible Light 12h 07m
Length of Day
11h 19m
Last Quarter, 37% of the Moon is Illuminated
Oct 22
Last Quarter
Oct 27
New
Nov 4
First Quarter
Nov 12
Full
Nov 19
Last Quarter

Hourly Weather History & Observations

Time (EDT) Temp. Heat Index Dew Point Humidity Pressure Visibility Wind Dir Wind Speed Gust Speed Precip Events Conditions
12:15 AM - - - N/A% 30.01 in 10.0 mi South 4.6 mph - N/A   Mostly Cloudy
12:35 AM - - - N/A% 30.02 in 10.0 mi South 5.8 mph - N/A   Mostly Cloudy
1:15 AM - - - N/A% 30.01 in 7.0 mi SSW 4.6 mph - N/A   Mostly Cloudy
1:35 AM - - - N/A% 30.01 in 5.0 mi SW 3.5 mph - N/A   Haze
1:55 AM - - - N/A% 30.01 in 7.0 mi South 5.8 mph - N/A   Mostly Cloudy
2:15 AM - - - N/A% 30.01 in 7.0 mi SSW 4.6 mph - N/A   Mostly Cloudy
2:35 AM - - - N/A% 30.01 in 5.0 mi SSW 4.6 mph - N/A   Haze
2:55 AM - - - N/A% 30.01 in 5.0 mi SSW 5.8 mph - N/A   Haze
3:15 AM - - - N/A% 30.00 in 5.0 mi SSW 4.6 mph - N/A   Haze
3:35 AM - - - N/A% 30.01 in 5.0 mi SSW 5.8 mph - N/A   Haze
3:55 AM - - - N/A% 30.00 in 5.0 mi SSW 4.6 mph - N/A   Haze
4:15 AM - - - N/A% 29.99 in 5.0 mi SSW 6.9 mph - N/A   Haze
4:35 AM - - - N/A% 29.99 in 7.0 mi SSW 5.8 mph - N/A   Mostly Cloudy
4:55 AM - - - N/A% 29.99 in 7.0 mi South 5.8 mph - N/A   Mostly Cloudy
5:15 AM - - - N/A% 29.99 in 7.0 mi SSW 4.6 mph - N/A   Scattered Clouds
5:35 AM - - - N/A% 29.99 in 7.0 mi SSW 5.8 mph - N/A   Mostly Cloudy
5:55 AM - - - N/A% 30.00 in 7.0 mi SSW 5.8 mph - N/A   Scattered Clouds
6:15 AM - - - N/A% 30.01 in 7.0 mi SSW 6.9 mph - N/A   Clear
6:35 AM - - - N/A% 30.01 in 7.0 mi SSW 4.6 mph - N/A   Scattered Clouds
6:55 AM - - - N/A% 30.01 in 7.0 mi SSW 4.6 mph - N/A   Scattered Clouds
7:15 AM - - - N/A% 30.02 in 7.0 mi SSW 4.6 mph - N/A   Scattered Clouds
7:35 AM - - - N/A% 30.01 in 7.0 mi SSW 3.5 mph - N/A   Mostly Cloudy
7:55 AM - - - N/A% 30.02 in 5.0 mi SSW 3.5 mph - N/A   Haze
8:15 AM - - - N/A% 30.02 in 5.0 mi SSW 3.5 mph - N/A   Haze
8:35 AM - - - N/A% 30.02 in 7.0 mi SSW 5.8 mph - N/A   Overcast
8:55 AM - - - N/A% 30.02 in 7.0 mi South 5.8 mph - N/A   Mostly Cloudy
9:15 AM - - - N/A% 30.02 in 7.0 mi South 5.8 mph - N/A   Scattered Clouds
9:35 AM - - - N/A% 30.02 in 10.0 mi South 8.1 mph - N/A   Scattered Clouds
9:55 AM - - - N/A% 30.03 in 10.0 mi South 9.2 mph - N/A   Mostly Cloudy
10:15 AM - - - N/A% 30.03 in 10.0 mi SSW 8.1 mph - N/A   Mostly Cloudy
10:35 AM - - - N/A% 30.03 in 10.0 mi SSW 9.2 mph - N/A   Mostly Cloudy
10:55 AM 86.0 °F 111.5 °F 86.0 °F 100% 30.03 in 10.0 mi SW 9.2 mph - N/A   Mostly Cloudy
11:15 AM 86.0 °F 99.3 °F 78.8 °F 79% 30.03 in 10.0 mi WSW 8.1 mph - N/A   Overcast
11:55 AM 86.0 °F 99.3 °F 78.8 °F 79% 30.01 in 10.0 mi SSW 13.8 mph - N/A   Overcast
12:15 PM 86.0 °F 99.3 °F 78.8 °F 79% 30.00 in 10.0 mi SSW 15.0 mph - N/A   Overcast
12:35 PM 86.0 °F 99.3 °F 78.8 °F 79% 30.00 in 10.0 mi SW 12.7 mph 20.7 mph N/A   Overcast
12:55 PM 87.8 °F 102.5 °F 78.8 °F 75% 30.00 in 10.0 mi WSW 11.5 mph - N/A   Overcast
1:15 PM 87.8 °F 102.5 °F 78.8 °F 75% 29.99 in 10.0 mi SW 10.4 mph - N/A   Scattered Clouds
1:35 PM 87.8 °F 102.5 °F 78.8 °F 75% 29.98 in 10.0 mi SW 13.8 mph - N/A   Scattered Clouds
1:55 PM 87.8 °F 102.5 °F 78.8 °F 75% 29.97 in 10.0 mi SW 10.4 mph - N/A   Scattered Clouds
2:15 PM 87.8 °F 102.5 °F 78.8 °F 75% 29.96 in 10.0 mi WSW 9.2 mph 16.1 mph N/A   Scattered Clouds
2:35 PM 87.8 °F 99.7 °F 77.0 °F 70% 29.96 in 10.0 mi WSW 9.2 mph - N/A   Mostly Cloudy
2:55 PM 87.8 °F 99.7 °F 77.0 °F 70% 29.96 in 10.0 mi West 9.2 mph - N/A   Mostly Cloudy
3:15 PM 87.8 °F 99.7 °F 77.0 °F 70% 29.96 in 10.0 mi West 6.9 mph - N/A   Mostly Cloudy
3:35 PM 87.8 °F 97.6 °F 75.2 °F 66% 29.96 in 10.0 mi West 5.8 mph - N/A   Mostly Cloudy
3:55 PM 87.8 °F 95.6 °F 73.4 °F 62% 29.96 in 10.0 mi West 9.2 mph - N/A   Scattered Clouds
4:15 PM 87.8 °F 95.6 °F 73.4 °F 62% 29.96 in 10.0 mi West 5.8 mph - N/A   Mostly Cloudy
4:35 PM 87.8 °F 95.6 °F 73.4 °F 62% 29.96 in 10.0 mi West 8.1 mph - N/A   Mostly Cloudy
4:55 PM 87.8 °F 95.6 °F 73.4 °F 62% 29.96 in 10.0 mi West 6.9 mph - N/A   Overcast
5:15 PM 86.0 °F 95.1 °F 75.2 °F 70% 29.96 in 10.0 mi WSW 5.8 mph - N/A   Overcast
5:35 PM 86.0 °F 96.9 °F 77.0 °F 74% 29.97 in 10.0 mi WSW 4.6 mph - N/A   Overcast
5:55 PM 86.0 °F 96.9 °F 77.0 °F 74% 29.97 in 10.0 mi WSW 3.5 mph - N/A   Overcast
6:15 PM 86.0 °F 96.9 °F 77.0 °F 74% 29.97 in 10.0 mi West 4.6 mph - N/A   Overcast
6:35 PM 84.2 °F 94.1 °F 77.0 °F 79% 29.98 in 10.0 mi West 3.5 mph - N/A   Overcast
6:55 PM 84.2 °F 94.1 °F 77.0 °F 79% 29.98 in 10.0 mi West 3.5 mph - N/A   Overcast
7:15 PM 82.4 °F 90.9 °F 77.0 °F 84% 29.98 in 10.0 mi West 4.6 mph - N/A   Overcast
7:35 PM 82.4 °F 89.5 °F 75.2 °F 79% 29.99 in 10.0 mi NW 4.6 mph - N/A   Overcast
7:55 PM 80.6 °F 86.2 °F 75.2 °F 84% 29.99 in 10.0 mi NW 3.5 mph - N/A   Overcast
8:15 PM 80.6 °F 86.2 °F 75.2 °F 84% 30.00 in 10.0 mi Calm Calm - N/A   Overcast
8:35 PM 80.6 °F 87.1 °F 77.0 °F 89% 30.01 in 10.0 mi Calm Calm - N/A   Overcast
8:55 PM 80.6 °F 87.1 °F 77.0 °F 89% 30.01 in 10.0 mi NW 3.5 mph - N/A   Overcast
9:15 PM 80.6 °F 87.1 °F 77.0 °F 89% 30.01 in 10.0 mi NNW 3.5 mph - N/A   Mostly Cloudy
9:35 PM 80.6 °F 86.2 °F 75.2 °F 84% 30.01 in 10.0 mi Calm Calm - N/A   Mostly Cloudy
9:55 PM 78.8 °F - 77.0 °F 94% 30.02 in 10.0 mi Calm Calm - N/A   Mostly Cloudy
10:15 PM 78.8 °F - 77.0 °F 94% 30.03 in 10.0 mi Calm Calm - N/A   Mostly Cloudy
10:35 PM 78.8 °F - 77.0 °F 94% 30.04 in 10.0 mi Calm Calm - N/A   Overcast
10:55 PM 78.8 °F - 77.0 °F 94% 30.04 in 10.0 mi Calm Calm - N/A   Overcast
11:15 PM 78.8 °F - 78.8 °F 100% 30.04 in 10.0 mi Calm Calm - N/A   Mostly Cloudy
11:35 PM - - - N/A% 30.03 in 10.0 mi Calm Calm - N/A   Mostly Cloudy
11:55 PM - - - N/A% 30.03 in 10.0 mi Calm Calm - N/A   Mostly Cloudy